Regional Weather Roundup
Issued by NWS

Home | Current Version | Previous Version | Graphics & Text | Print | Product List | Glossary Off
Versions: 1 2 3 4 5 6 7 8 9 10 11 12 13 14 15 16 17 18 19 20 21 22 23 24 25 26 27 28 29 30 31 32 33 34 35 36 37 38 39 40 41 42 43 44 45 46 47 48 49 50

000
ASUS43 KTOP 291408
RWRKS

WEATHER ROUNDUP FOR KANSAS
NATIONAL WEATHER SERVICE GOODLAND KS
900 AM CDT FRI MAY 29 2015

NOTE:  "FAIR" INDICATES FEW OR NO CLOUDS BELOW 12,000 FEET WITH NO
SIGNIFICANT WEATHER AND/OR OBSTRUCTIONS TO VISIBILITY.

KSZ001>006-013>018-027>032-041>047-291500-
NORTHWEST KANSAS

CITY           SKY/WX    TMP DP  RH WIND       PRES   REMARKS
GOODLAND       CLOUDY    58  52  80 N16       30.08R
HAYS           PTSUNNY   61  52  72 NW9       30.00R
HILL CITY      MOSUNNY   64  56  75 NW12      30.00F
RUSSELL        CLOUDY    63  58  83 W7        29.97R
$$

KSZ061>065-074>080-084>089-291500-
SOUTHWEST KANSAS

CITY           SKY/WX    TMP DP  RH WIND       PRES   REMARKS
DODGE CITY     PTSUNNY   60  54  80 N8        30.01S
ELKHART          N/A     60  50  69 NW9         N/A
GARDEN CITY    SUNNY     61  55  81 NE5       30.02S
GREAT BEND     CLOUDY    63  55  77 NW3       29.98R
LIBERAL        SUNNY     63  55  77 NE6       30.05R
PRATT          CLOUDY    63  57  82 CALM      30.00S
$$

KSZ066>073-081>083-090>101-291500-
SOUTHEAST KANSAS

CITY           SKY/WX    TMP DP  RH WIND       PRES   REMARKS
CHANUTE        LGT RAIN  66  65  96 SE9       30.03R
COFFEYVILLE    LGT RAIN  68  67  96 E5        30.01F
HUTCHINSON     CLOUDY    65  60  84 E3        29.97S
MEDICINE LODGE   N/A     65  61  87 N3        29.97S
NEWTON         CLOUDY    66  63  88 S8        29.99F
PARSONS        LGT RAIN  69  68  96 CALM      30.03S
WICHITA INTL   CLOUDY    70  65  84 SE10      29.96S
WICHITA JABRA  CLOUDY    67  64  90 SE7       29.98R
WICHITA MCCONL CLOUDY    68  64  87 SE9       29.98S
WINFIELD       CLOUDY    71  65  81 S8        29.98F
$$

KSZ007>012-019>026-033>040-048>060-102>105-291500-
NORTHEAST KANSAS

CITY           SKY/WX    TMP DP  RH WIND       PRES   REMARKS
CONCORDIA      CLOUDY    64  60  87 W5        29.97R
EMPORIA        LGT RAIN  64  63  96 SE7       30.00R
LAWRENCE       LGT RAIN  67  62  84 S14       29.98R
MANHATTAN      CLOUDY    66  64  93 SW6       29.95F
MARYSVILLE     CLOUDY    66  64  94 SW8       29.94F
OLATHE IND     CLOUDY    66  63  90 S14       30.00R
OLATHE EXE     LGT RAIN  65  63  93 S9        29.99S
SALINA         CLOUDY    65  60  84 S5        29.96S
TOPEKA BILLARD CLOUDY    69  65  86 S16G24    29.96S
TOPEKA FORBES  CLOUDY    69  64  84 S15       29.97S
$$



USA.gov is the U.S. government's official web portal to all federal, state and local government web resources and services.